logo
Rechercher aéroport 
image banner adimage banner adimage banner ad
image banner ad

10NV - Sunrise Mountain View Hospital

Situé à Las Vegas, United States

ICAO - 10NV, IATA -

Données fournies par Airmate  

Information générale

Coordonnées: N36°12'52" W115°14'55"
Élévation : 2328 feet MSL.
 
Voir autres Aéroports à Nevada

Données opérationnelles

Special qualification required
Heure actuelle UTC:
Heure actuelle locale:
Météo à : KVGT - North Las Vegas ( 5 km )
METAR: KVGT 261553Z 33007KT 10SM CLR 29/M03 A3006 RMK AO2 SLP171 T02891028
TAF: KVGT 261120Z 2612/2712 34006KT P6SM SKC FM261800 08007KT P6SM FEW250 FM270200 VRB05KT P6SM SKC
Voir NOTAMs / SUP AIP / TFR affectant cet aéroport [VIEW]
Fréquences de communication: [VIEW]

Pistes:

Coordonnées de l'aéroport

Adresse: Las Vegas United States

Vue satellite de 10NV